TimeEST,TemperatureF,Dew PointF,Humidity,Sea Level PressureIn,VisibilityMPH,Wind Direction,Wind SpeedMPH,Gust SpeedMPH,PrecipitationIn,Events,Conditions,WindDirDegrees,DateUTC
12:15 AM,21.0,17.6,87,30.02,10.0,Calm,Calm,-,N/A,,Clear,0,2013-01-24 05:15:00
12:35 AM,21.4,17.8,86,30.01,10.0,Calm,Calm,-,N/A,,Clear,0,2013-01-24 05:35:00
12:55 AM,22.8,18.3,83,29.99,10.0,Calm,Calm,-,N/A,,Clear,0,2013-01-24 05:55:00
1:15 AM,22.3,18.1,84,29.99,10.0,Calm,Calm,-,N/A,,Clear,0,2013-01-24 06:15:00
1:35 AM,23.4,19.0,84,29.98,10.0,Calm,Calm,-,N/A,,Mostly Cloudy,0,2013-01-24 06:35:00
1:55 AM,25.3,19.8,79,29.97,10.0,Calm,Calm,-,N/A,,Overcast,0,2013-01-24 06:55:00
2:15 AM,25.3,21.2,84,29.96,10.0,Calm,Calm,-,N/A,,Overcast,0,2013-01-24 07:15:00
2:35 AM,25.9,21.4,83,29.97,10.0,Calm,Calm,-,N/A,,Overcast,0,2013-01-24 07:35:00
2:55 AM,26.6,22.6,85,29.96,10.0,Calm,Calm,-,N/A,,Overcast,0,2013-01-24 07:55:00
3:15 AM,28.4,23.7,83,29.96,10.0,Calm,Calm,-,N/A,,Overcast,0,2013-01-24 08:15:00
3:35 AM,29.1,24.3,82,29.96,10.0,WSW,3.5,-,N/A,,Overcast,240,2013-01-24 08:35:00
3:55 AM,29.1,23.7,80,29.96,10.0,Calm,Calm,-,N/A,,Overcast,0,2013-01-24 08:55:00
4:15 AM,29.7,23.4,77,29.97,10.0,Calm,Calm,-,N/A,,Overcast,0,2013-01-24 09:15:00
4:35 AM,29.8,24.3,80,29.97,10.0,Calm,Calm,-,N/A,,Overcast,0,2013-01-24 09:35:00
4:55 AM,30.0,24.1,79,29.98,10.0,Calm,Calm,-,N/A,,Overcast,0,2013-01-24 09:55:00
5:15 AM,29.7,22.8,76,30.00,10.0,Calm,Calm,-,N/A,,Mostly Cloudy,0,2013-01-24 10:15:00
5:35 AM,31.8,21.6,66,30.01,10.0,North,3.5,-,N/A,,Overcast,360,2013-01-24 10:35:00
5:55 AM,32.0,22.6,68,30.02,10.0,Calm,Calm,-,N/A,,Mostly Cloudy,0,2013-01-24 10:55:00
6:15 AM,30.7,21.9,70,30.04,10.0,Calm,Calm,-,N/A,,Scattered Clouds,0,2013-01-24 11:15:00
6:35 AM,32.5,21.2,63,30.05,10.0,North,5.8,-,N/A,,Clear,360,2013-01-24 11:35:00
6:55 AM,34.2,20.1,57,30.07,10.0,North,4.6,-,N/A,,Clear,350,2013-01-24 11:55:00
7:15 AM,34.2,18.3,52,30.09,10.0,North,3.5,-,N/A,,Clear,360,2013-01-24 12:15:00
7:35 AM,33.3,16.9,51,30.11,10.0,NNE,3.5,-,N/A,,Clear,20,2013-01-24 12:35:00
7:55 AM,33.1,15.8,49,30.13,10.0,North,4.6,-,N/A,,Clear,10,2013-01-24 12:55:00
8:15 AM,33.8,14.5,45,30.14,10.0,North,6.9,-,N/A,,Clear,350,2013-01-24 13:15:00
8:35 AM,33.8,14.2,45,30.16,10.0,NNW,8.1,-,N/A,,Clear,340,2013-01-24 13:35:00
8:55 AM,34.2,13.5,43,30.18,10.0,NNW,5.8,21.9,N/A,,Clear,330,2013-01-24 13:55:00
9:15 AM,34.9,12.9,40,30.21,10.0,North,9.2,-,N/A,,Clear,360,2013-01-24 14:15:00
9:35 AM,33.8,13.8,44,30.23,10.0,North,10.4,18.4,N/A,,Clear,360,2013-01-24 14:35:00
9:55 AM,33.4,11.3,40,30.26,10.0,North,10.4,19.6,N/A,,Clear,10,2013-01-24 14:55:00
10:15 AM,33.4,11.7,41,30.28,10.0,North,12.7,20.7,N/A,,Clear,350,2013-01-24 15:15:00
10:35 AM,32.0,7.5,36,30.30,10.0,NNW,11.5,21.9,N/A,,Clear,340,2013-01-24 15:35:00
10:55 AM,31.5,5.0,33,30.31,10.0,North,13.8,20.7,N/A,,Clear,10,2013-01-24 15:55:00
11:15 AM,30.9,3.4,31,30.33,10.0,NW,8.1,19.6,N/A,,Clear,320,2013-01-24 16:15:00
11:35 AM,31.8,4.8,32,30.34,10.0,WNW,8.1,17.3,N/A,,Clear,300,2013-01-24 16:35:00
11:55 AM,32.0,5.0,32,30.34,10.0,NW,8.1,16.1,N/A,,Clear,320,2013-01-24 16:55:00
12:15 PM,32.0,3.9,31,30.35,10.0,North,5.8,-,N/A,,Clear,350,2013-01-24 17:15:00
12:35 PM,31.8,3.9,31,30.35,10.0,NW,5.8,-,N/A,,Scattered Clouds,310,2013-01-24 17:35:00
12:55 PM,31.6,4.5,32,30.36,10.0,North,6.9,-,N/A,,Scattered Clouds,360,2013-01-24 17:55:00
1:15 PM,32.0,3.9,31,30.36,10.0,North,9.2,-,N/A,,Clear,10,2013-01-24 18:15:00
1:35 PM,32.2,1.4,27,30.36,10.0,North,3.5,20.7,N/A,,Clear,360,2013-01-24 18:35:00
1:55 PM,32.4,2.5,28,30.36,10.0,NNW,4.6,-,N/A,,Clear,330,2013-01-24 18:55:00
2:15 PM,32.7,2.7,28,30.36,10.0,North,8.1,16.1,N/A,,Clear,360,2013-01-24 19:15:00
2:35 PM,32.5,1.8,27,30.37,10.0,North,9.2,16.1,N/A,,Clear,360,2013-01-24 19:35:00
2:55 PM,32.0,1.6,27,30.38,10.0,North,5.8,16.1,N/A,,Clear,10,2013-01-24 19:55:00
3:15 PM,32.0,1.4,27,30.39,10.0,North,3.5,-,N/A,,Clear,10,2013-01-24 20:15:00
3:35 PM,31.8,0.9,27,30.40,10.0,NNE,4.6,-,N/A,,Clear,30,2013-01-24 20:35:00
3:55 PM,31.8,1.6,28,30.41,10.0,NNW,3.5,-,N/A,,Clear,330,2013-01-24 20:55:00
4:15 PM,32.0,1.6,27,30.41,10.0,Calm,Calm,-,N/A,,Clear,0,2013-01-24 21:15:00
4:35 PM,31.1,1.8,29,30.42,10.0,NW,3.5,-,N/A,,Clear,320,2013-01-24 21:35:00
4:55 PM,30.6,2.1,30,30.43,10.0,WNW,4.6,-,N/A,,Clear,300,2013-01-24 21:55:00
5:15 PM,30.2,2.7,31,30.44,10.0,Calm,Calm,-,N/A,,Clear,0,2013-01-24 22:15:00
5:35 PM,29.3,2.8,32,30.44,10.0,North,3.5,-,N/A,,Clear,360,2013-01-24 22:35:00
5:55 PM,29.1,2.7,32,30.45,10.0,Calm,Calm,-,N/A,,Clear,0,2013-01-24 22:55:00
6:15 PM,28.4,1.4,31,30.45,10.0,Calm,Calm,-,N/A,,Clear,0,2013-01-24 23:15:00
6:35 PM,28.0,0.7,31,30.47,10.0,Calm,Calm,-,N/A,,Clear,0,2013-01-24 23:35:00
6:55 PM,27.5,0.5,31,30.48,10.0,Calm,Calm,-,N/A,,Clear,0,2013-01-24 23:55:00
7:15 PM,26.6,1.4,34,30.48,10.0,Calm,Calm,-,N/A,,Clear,0,2013-01-25 00:15:00
7:35 PM,26.2,2.5,36,30.49,10.0,Calm,Calm,-,N/A,,Clear,0,2013-01-25 00:35:00
7:55 PM,24.6,3.4,40,30.50,10.0,Calm,Calm,-,N/A,,Clear,0,2013-01-25 00:55:00
8:15 PM,23.4,4.6,45,30.50,10.0,Calm,Calm,-,N/A,,Clear,0,2013-01-25 01:15:00
8:35 PM,23.4,3.7,43,30.50,10.0,Calm,Calm,-,N/A,,Clear,0,2013-01-25 01:35:00
8:55 PM,20.5,5.7,53,30.50,10.0,Calm,Calm,-,N/A,,Clear,0,2013-01-25 01:55:00
9:15 PM,19.2,7.2,59,30.50,10.0,Calm,Calm,-,N/A,,Clear,0,2013-01-25 02:15:00
9:35 PM,21.7,5.7,50,30.49,10.0,Calm,Calm,-,N/A,,Clear,0,2013-01-25 02:35:00
9:55 PM,18.5,7.9,63,30.50,10.0,Calm,Calm,-,N/A,,Clear,0,2013-01-25 02:55:00
10:15 PM,20.5,6.4,55,30.49,10.0,Calm,Calm,-,N/A,,Clear,0,2013-01-25 03:15:00
10:35 PM,18.9,8.2,63,30.50,10.0,Calm,Calm,-,N/A,,Clear,0,2013-01-25 03:35:00
10:55 PM,16.0,9.9,77,30.50,10.0,Calm,Calm,-,N/A,,Clear,0,2013-01-25 03:55:00
11:15 PM,16.9,10.8,77,30.50,10.0,Calm,Calm,-,N/A,,Clear,0,2013-01-25 04:15:00
11:35 PM,16.7,9.5,73,30.49,10.0,Calm,Calm,-,N/A,,Clear,0,2013-01-25 04:35:00
11:55 PM,15.1,10.4,82,30.49,10.0,Calm,Calm,-,N/A,,Clear,0,2013-01-25 04:55:00